GEFSSE_con_probscp_198.txt.gz
Probability
29 27 30 26 17 9 4 1 0 0 0 0 0 0 0 0 0 0 0 1 2 3 4 4 3 2 1 0 0 0 0 0 0 0 0 0 0 0 1 3 4 3 3
35 30 30 28 19 11 5 2 0 0 0 1 1 1 0 0 0 0 0 1 2 3 4 4 3 1 0 0 0 0 0 0 0 0 0 0 0 1 2 4 6 7 6
40 31 29 30 22 14 9 5 2 1 1 2 4 3 2 1 1 1 1 2 3 4 5 5 5 3 1 1 0 0 0 1 2 1 0 0 0 3 5 8 11 12 10
39 32 31 33 26 18 13 8 5 3 3 4 6 7 6 5 4 3 2 2 4 5 5 6 6 5 3 2 2 2 2 2 3 1 0 0 3 8 13 15 15 15 14
36 36 38 39 34 24 16 12 9 7 6 7 8 11 12 10 9 8 6 6 6 6 5 5 5 5 4 4 4 4 4 3 3 2 0 1 6 17 23 22 19 18 19
34 39 44 44 38 30 22 16 14 12 11 13 13 14 14 14 15 14 13 12 12 10 6 5 6 7 7 7 6 6 6 5 3 3 2 1 10 23 29 27 23 21 23
37 43 47 47 43 35 27 23 20 18 18 20 20 18 16 16 18 19 17 16 16 14 9 7 9 12 12 11 9 8 7 6 4 4 3 3 14 28 33 30 27 23 23
41 45 48 48 46 39 32 27 24 23 25 27 27 24 19 17 19 20 17 15 16 15 13 12 12 13 14 15 15 12 9 7 5 3 2 7 21 35 38 33 29 26 24
42 46 46 44 43 40 35 31 28 28 31 32 30 26 21 19 20 20 17 15 15 15 16 15 13 12 15 19 20 16 11 9 7 4 2 9 27 41 40 34 30 28 28
41 43 44 42 41 39 37 34 31 31 35 34 30 27 23 19 18 20 20 19 18 18 18 15 12 12 16 20 21 17 13 12 11 7 4 12 28 40 38 33 30 28 29
40 40 40 40 40 39 38 37 34 33 33 31 28 28 24 18 16 18 21 25 26 24 22 16 13 15 17 19 19 16 14 15 14 10 9 17 30 36 35 32 27 25 26
41 39 37 38 39 39 40 40 37 32 31 29 27 27 24 19 16 16 21 29 31 27 23 17 16 18 19 19 19 18 17 17 15 12 14 25 33 34 33 30 25 25 27
42 41 38 40 42 43 44 45 39 34 31 30 29 28 26 22 20 20 24 29 29 24 20 17 16 17 18 19 19 19 19 18 15 13 18 31 38 35 32 29 26 27 31
42 42 43 48 51 52 53 50 42 36 33 32 33 34 32 29 26 26 28 28 25 21 18 16 15 15 14 16 16 16 16 15 13 13 19 31 37 34 29 27 26 29 34
43 42 44 52 58 58 57 53 44 39 38 37 38 39 37 34 31 30 30 29 26 24 22 20 18 15 14 14 14 14 13 11 11 12 16 25 31 30 26 23 24 29 34
42 41 42 50 56 56 53 50 44 41 42 43 43 42 39 34 32 31 32 33 32 31 30 27 23 19 17 16 16 15 14 12 11 11 13 16 22 25 24 22 23 26 29
42 41 42 45 48 49 48 47 44 42 45 47 46 45 40 33 31 33 34 36 35 33 33 31 27 24 22 19 17 16 17 16 13 11 9 9 13 17 20 22 24 25 25
40 41 42 42 42 42 43 45 45 43 44 46 46 44 39 33 31 33 35 35 34 32 31 30 28 27 24 21 18 17 17 18 14 9 7 6 8 10 14 19 23 24 23
36 38 41 41 39 37 39 41 41 40 41 42 43 42 37 32 31 32 32 32 33 33 31 27 26 26 24 21 18 15 16 17 13 8 6 6 7 8 9 13 17 20 20
30 32 35 36 35 35 37 37 35 34 36 39 40 39 36 32 30 30 30 32 34 35 32 29 26 24 22 19 14 12 12 13 11 9 8 8 9 8 6 7 11 14 15
27 27 28 30 32 34 35 35 33 31 32 35 37 36 34 31 29 27 27 29 32 33 32 29 26 22 20 17 13 9 7 7 7 7 7 8 9 8 5 4 7 10 9
23 22 23 27 31 33 33 32 31 30 31 32 34 33 29 27 26 24 23 25 27 29 29 28 25 21 18 17 14 9 4 3 3 3 3 4 5 6 5 4 6 8 9
18 19 21 25 30 32 30 28 27 28 29 29 30 29 25 23 22 22 21 20 22 25 27 27 24 18 15 14 13 9 5 2 1 0 0 1 2 4 4 3 5 8 9
15 17 20 24 28 29 28 26 26 27 26 25 25 25 22 21 21 20 18 17 19 24 27 26 23 18 13 11 11 8 5 3 1 0 0 1 2 3 3 3 4 7 8
12 14 19 24 26 27 26 26 27 27 24 23 23 22 21 20 20 18 15 15 17 22 24 24 22 19 13 10 8 7 6 4 2 1 1 1 3 4 4 3 4 6 7
9 11 17 22 24 24 25 26 28 27 24 22 22 22 21 20 19 16 15 16 16 19 22 21 20 18 14 9 6 6 6 5 3 2 1 1 2 4 5 4 6 7 6

GEFSSE_con_probscp_204.txt.gz
Probability
7 10 14 16 16 15 16 16 15 16 16 15 15 16 13 10 8 7 8 8 7 5 3 1 0 0 0 0 1 2 3 3 2 1 0 0 0 1 2 3 2 3 4
9 11 16 19 19 18 17 17 16 17 17 16 16 15 13 10 9 8 7 6 5 4 3 1 0 0 0 1 2 3 3 3 2 1 0 0 0 1 3 4 5 7 9
9 11 17 23 23 22 20 19 18 19 20 20 18 16 14 11 10 11 9 6 4 3 3 2 1 1 2 3 4 4 3 2 1 0 0 0 0 1 4 7 10 14 17
9 10 16 25 28 26 25 23 20 21 22 22 19 17 15 13 14 14 12 8 5 4 4 2 1 2 4 4 4 4 3 2 0 0 0 0 0 3 7 12 15 18 22
11 11 17 27 32 31 29 27 25 24 24 23 20 17 15 14 15 16 13 10 7 6 4 3 3 3 4 4 4 4 3 2 1 0 0 0 0 3 10 15 18 20 22
12 13 20 30 35 34 31 30 29 27 25 24 21 18 16 16 17 18 15 11 9 7 5 4 4 4 4 4 4 3 3 3 3 2 1 1 1 4 9 14 20 23 25
16 17 24 33 38 37 34 33 32 30 27 24 22 19 17 18 20 20 17 14 11 8 7 6 6 6 5 5 5 4 3 4 5 5 3 2 3 5 7 14 22 26 26
19 20 26 34 38 38 37 35 34 33 29 25 23 20 18 18 20 21 19 16 12 9 7 7 8 8 8 8 6 5 4 5 6 6 5 2 3 6 9 16 25 27 26
19 21 26 30 33 33 33 32 32 31 29 25 22 21 19 17 18 19 18 16 13 10 7 8 9 9 9 10 8 6 5 5 5 6 5 3 3 6 12 21 28 29 27
20 23 26 27 28 29 28 28 27 27 26 23 20 19 18 15 15 16 15 14 13 11 10 11 11 10 10 10 10 8 7 7 7 7 6 3 3 6 14 23 30 31 29
20 22 23 24 25 27 28 28 27 27 25 21 17 16 15 13 12 13 13 12 12 10 12 15 16 14 12 11 11 10 10 11 10 9 6 4 3 6 13 22 29 31 30
15 15 17 19 21 23 26 27 28 29 25 20 15 13 13 12 11 12 11 10 10 10 11 14 16 15 13 12 11 11 13 13 12 10 8 7 7 10 16 23 28 29 30
11 11 12 15 17 19 22 25 27 28 24 18 15 14 14 14 13 12 10 9 9 9 9 10 11 11 11 10 10 11 12 14 13 12 9 9 13 17 21 27 30 29 29
12 11 11 13 15 17 18 22 24 24 21 18 16 16 16 15 13 11 10 9 8 8 7 7 7 8 8 9 9 10 11 13 13 11 9 11 17 20 22 26 28 26 26
14 13 12 12 14 16 17 18 18 17 18 18 17 17 16 14 11 9 8 7 7 7 8 8 7 7 8 7 7 7 8 9 10 9 8 11 17 19 20 21 22 22 22
14 14 14 13 13 14 16 16 14 14 15 15 14 14 14 13 10 7 6 6 7 9 9 8 7 7 6 5 5 5 5 5 6 6 6 8 14 17 18 19 19 20 20
14 14 14 13 13 14 15 14 14 13 13 11 10 10 11 11 9 7 6 6 8 9 9 8 6 4 3 3 4 5 4 3 2 2 2 3 7 11 14 16 17 18 19
14 14 14 14 14 15 15 14 14 13 11 10 9 9 10 12 12 9 7 7 9 10 9 7 4 2 2 2 3 3 3 1 0 0 0 0 1 4 7 10 13 15 16
14 13 13 12 12 15 16 15 14 12 11 11 12 12 12 14 15 12 9 8 9 11 11 9 5 2 2 2 2 1 1 1 0 0 0 0 0 1 2 5 8 12 13
12 12 11 9 10 14 17 17 14 12 11 13 15 15 14 15 15 13 11 10 10 11 12 11 6 3 1 1 1 0 0 1 0 0 0 0 0 0 1 2 4 7 9
11 9 8 8 9 12 16 17 15 12 12 14 15 16 15 15 14 13 11 10 10 12 13 10 6 3 2 1 0 0 0 0 0 0 0 0 0 0 0 1 1 2 3
7 7 6 6 8 10 12 14 13 12 13 13 13 12 12 12 13 13 10 8 9 12 12 8 5 3 2 2 1 0 0 0 0 0 0 0 0 0 0 0 0 0 1
4 4 3 3 5 8 10 12 12 11 11 11 10 9 9 9 11 12 10 8 8 9 8 6 5 3 3 2 1 0 0 0 0 0 0 0 0 0 0 0 0 0 0
3 2 1 2 5 7 9 11 11 10 9 9 8 7 7 7 9 10 10 8 7 6 6 5 4 4 3 2 1 0 0 0 0 0 0 0 0 0 0 0 0 0 0
2 1 0 1 3 5 7 9 10 10 9 8 7 7 6 7 7 9 9 8 7 6 6 6 4 4 4 2 0 0 0 0 0 0 0 0 0 0 0 0 0 0 0
1 0 0 0 1 2 5 7 9 10 9 8 7 7 6 6 7 8 8 8 7 6 6 6 4 4 4 2 1 0 0 0 0 0 0 0 0 0 0 0 0 0 0

GEFSSE_con_probscp_210.txt.gz
Probability
6 13 23 26 27 30 29 27 27 26 25 26 26 25 23 19 14 9 7 5 5 4 3 1 1 1 2 1 1 0 0 0 0 0 0 0 0 1 1 1 0 0 0
8 15 25 28 28 29 29 27 28 27 26 27 28 26 23 20 16 11 7 6 6 6 4 2 2 3 4 3 2 0 0 0 0 0 0 0 0 0 0 0 0 0 0
12 17 24 26 26 27 28 29 30 29 27 28 29 27 25 22 18 13 9 8 8 7 6 3 2 4 5 5 2 0 0 0 1 1 0 0 0 0 0 1 2 1 1
16 17 20 23 24 25 27 29 31 29 27 27 28 27 25 21 18 15 13 11 9 9 8 5 3 4 5 4 2 1 1 1 2 2 1 1 1 1 1 2 3 3 2
17 18 21 23 24 25 27 29 29 27 26 27 28 27 24 20 17 15 14 12 10 9 9 8 6 4 4 4 4 3 3 3 3 3 2 2 2 2 3 3 4 4 5
18 19 21 24 26 27 27 27 26 25 26 28 30 28 25 21 17 14 13 11 10 9 10 11 9 5 3 4 6 6 5 4 3 3 2 2 3 5 6 7 7 7 8
18 17 18 22 27 28 26 24 23 23 26 29 31 30 27 23 19 16 15 13 12 11 10 11 10 6 5 6 7 7 7 5 4 3 2 2 3 7 9 11 13 13 12
19 17 15 18 23 27 26 23 21 22 24 26 27 25 24 21 19 17 16 14 12 11 10 9 9 9 9 9 8 8 8 6 6 5 4 3 4 6 8 12 16 17 17
20 18 15 15 18 23 25 24 22 22 22 22 20 18 16 15 14 13 11 9 9 9 8 7 8 11 12 11 9 9 9 8 8 8 7 5 5 6 7 9 12 16 18
20 17 14 13 15 18 21 22 23 22 20 19 16 14 14 13 10 8 8 7 7 7 7 7 9 11 12 11 9 8 9 10 11 11 9 7 6 7 9 9 10 12 13
18 15 13 12 13 15 16 19 21 20 19 18 17 16 15 13 10 8 8 8 7 8 7 7 8 9 10 10 9 9 9 11 13 14 12 8 7 8 11 12 12 11 9
15 14 13 12 12 14 15 16 18 18 17 17 18 18 16 14 11 10 10 9 8 8 7 7 8 9 9 10 11 11 12 12 13 14 12 11 10 9 13 15 14 11 10
12 12 12 11 11 12 13 13 14 15 16 17 19 19 17 14 13 12 11 9 7 7 7 8 10 10 10 10 10 11 12 12 13 13 12 12 13 14 16 18 15 14 14
11 11 11 10 10 10 10 10 10 13 17 18 19 19 17 14 13 13 11 9 8 7 7 8 9 10 10 9 9 8 9 11 12 12 11 11 14 17 18 18 16 15 16
11 11 10 9 9 8 8 8 8 12 15 16 16 15 13 11 10 11 11 10 9 7 6 6 6 7 7 7 7 7 7 8 10 10 8 9 12 16 18 17 15 14 16
10 9 8 8 8 7 8 8 8 9 12 13 12 11 9 6 7 9 9 9 8 7 6 5 5 4 5 5 6 6 6 6 6 6 5 6 9 13 18 19 17 17 17
8 8 7 7 7 7 7 8 7 8 10 11 11 10 7 5 5 7 8 8 7 6 5 5 5 4 4 5 5 6 6 4 3 3 2 3 5 10 15 20 21 21 20
9 8 7 6 6 6 6 7 7 7 8 8 9 9 7 6 6 7 8 8 7 7 6 6 6 5 6 6 6 6 6 4 2 1 0 1 3 5 9 15 20 20 19
10 9 7 6 6 6 5 5 5 6 6 5 5 6 6 6 6 6 7 8 9 9 7 7 7 7 7 7 6 6 6 4 1 0 0 1 3 3 5 8 12 14 14
9 7 6 6 5 4 4 3 3 3 4 4 4 4 5 6 6 6 7 9 10 10 9 8 8 7 7 6 5 4 3 2 0 0 1 2 3 3 3 4 5 7 9
5 4 3 4 4 3 3 3 3 3 3 4 4 4 5 6 6 6 8 9 10 10 10 9 9 8 7 6 4 3 1 0 0 0 1 2 2 2 2 2 2 3 5
3 3 2 3 3 3 3 3 3 3 3 4 5 4 5 6 7 7 7 8 9 10 10 9 9 8 7 6 5 3 2 1 0 0 1 1 1 1 1 1 0 1 2
4 3 2 2 2 2 2 2 3 3 3 4 4 3 4 6 7 7 6 7 8 9 9 8 7 7 7 5 4 4 2 1 0 0 0 0 0 0 0 0 0 0 1
4 3 1 0 1 1 0 1 2 2 2 3 3 2 3 4 6 6 5 5 7 8 8 7 6 7 7 5 4 3 1 0 0 0 0 0 0 0 0 0 0 1 2
3 2 1 0 0 0 0 0 1 1 1 2 3 1 1 2 3 4 3 3 4 5 5 5 5 6 6 5 3 2 0 0 0 0 0 0 0 0 0 0 0 1 2
3 1 0 0 0 0 0 0 0 0 0 1 1 1 0 1 2 3 2 2 2 4 4 3 4 4 4 4 3 2 1 0 0 0 0 0 0 0 0 0 0 0 1

GEFSSE_con_probscp_216.txt.gz
Probability
5 11 19 21 20 16 12 11 11 12 11 11 11 10 11 12 11 9 6 5 5 4 1 0 1 0 0 0 1 1 0 1 3 3 1 0 0 0 0 0 0 2 3
6 12 19 23 21 16 12 12 15 16 15 14 13 11 12 13 13 12 10 8 7 6 3 1 2 1 0 0 1 1 0 1 2 2 1 0 0 0 0 0 1 4 6
7 11 18 22 22 17 13 13 16 18 18 18 16 14 14 15 15 15 14 12 11 9 7 5 3 2 1 0 1 1 0 1 2 1 0 0 1 2 2 2 3 6 7
9 12 17 22 24 21 17 14 16 18 18 19 19 18 18 17 16 15 15 14 13 11 10 8 5 2 1 0 0 0 1 2 2 1 0 0 4 8 7 4 4 5 5
10 14 21 26 28 28 23 19 18 19 18 18 19 18 17 18 17 14 12 12 11 10 9 8 5 3 2 2 2 1 2 3 3 1 0 1 6 13 13 7 4 4 6
10 14 23 29 32 32 27 22 22 22 20 18 17 17 16 16 16 13 10 10 10 9 9 7 5 4 4 5 4 3 3 2 2 2 1 1 8 17 18 11 7 8 9
9 12 20 26 28 27 25 22 23 23 20 19 18 16 16 15 13 10 8 8 10 11 10 9 7 6 6 6 6 6 4 2 1 1 1 2 10 19 19 13 12 13 13
9 11 15 20 22 23 23 22 21 20 18 18 18 17 16 14 12 9 7 7 9 10 10 9 7 6 6 7 8 9 7 3 1 0 1 4 13 19 15 11 14 16 17
11 12 13 13 17 20 21 21 20 18 17 19 19 18 17 16 14 11 8 7 7 8 8 8 8 7 6 6 8 10 8 4 1 1 1 6 16 19 13 9 11 16 19
16 15 12 11 13 16 18 19 19 19 20 21 21 19 18 16 15 13 11 9 9 8 7 7 8 7 7 7 8 8 7 5 3 2 2 9 19 19 12 8 10 13 16
19 17 13 10 10 13 15 17 17 17 19 19 18 17 16 16 14 12 11 11 12 10 8 7 6 6 8 9 8 7 7 7 6 4 5 12 18 17 12 10 10 12 13
18 17 14 11 10 12 14 16 17 18 17 16 13 13 15 16 14 10 10 12 12 11 10 8 7 7 9 10 9 8 9 9 8 6 7 12 15 13 12 12 12 11 11
16 16 14 13 13 14 16 18 19 19 18 15 12 13 16 18 17 14 12 13 12 11 10 10 10 9 11 11 10 8 8 9 9 9 10 13 14 12 11 11 11 10 10
16 17 16 16 18 20 22 22 20 19 17 15 15 16 19 21 19 17 16 15 13 12 12 12 11 11 12 12 10 7 6 7 9 11 14 16 16 12 8 6 7 9 10
16 17 18 18 21 24 27 25 20 18 17 17 17 18 20 22 21 19 20 17 13 13 14 13 10 10 11 10 8 6 4 5 7 10 13 16 14 10 6 4 5 7 9
16 18 19 20 22 24 25 24 20 18 19 21 20 20 22 24 23 21 21 19 14 14 15 14 11 10 8 7 6 4 4 4 5 6 9 11 11 8 7 7 7 7 8
18 19 21 22 23 23 23 20 19 19 21 23 23 22 23 25 24 21 20 18 15 13 15 16 14 11 9 6 5 4 5 7 7 6 8 10 9 7 7 8 8 8 7
19 21 22 22 22 22 21 19 17 18 21 23 23 22 22 22 20 19 18 16 14 13 15 17 16 15 12 10 9 8 10 12 12 11 11 11 9 8 8 8 9 8 6
19 21 21 21 21 19 19 18 16 15 16 18 19 19 19 18 17 16 15 15 14 13 15 17 18 18 17 15 14 15 15 15 16 15 14 12 11 10 9 9 9 8 6
19 20 20 19 18 15 14 15 14 11 10 12 14 15 14 13 13 13 13 14 13 13 15 17 18 18 18 18 17 16 16 15 16 16 15 15 14 12 10 10 10 8 6
19 19 17 15 13 11 10 11 11 9 7 8 10 12 13 11 10 10 12 13 12 12 15 17 17 17 18 19 19 17 15 13 13 13 14 14 15 14 11 10 10 9 8
17 16 14 11 9 8 7 7 8 7 7 8 9 11 13 12 10 10 11 11 10 11 13 15 16 16 17 20 21 19 14 11 10 9 10 12 15 16 13 10 9 9 9
14 14 12 10 9 7 6 5 5 5 6 6 7 10 11 11 10 9 9 10 10 10 11 13 14 14 16 20 22 20 15 12 11 8 8 10 13 14 13 10 9 9 9
12 12 11 10 9 7 5 4 3 3 4 4 5 8 9 9 8 8 9 11 11 10 11 12 13 13 16 19 21 20 17 15 13 10 8 8 10 11 11 9 8 8 8
11 10 9 8 7 4 3 3 3 3 3 3 5 7 8 8 8 9 11 12 12 11 11 12 13 14 15 17 18 19 17 16 15 12 9 8 8 9 9 8 7 6 6
11 9 8 7 5 3 2 2 3 3 3 3 5 7 7 9 9 10 11 12 11 10 11 12 12 13 15 15 16 17 16 15 14 14 11 8 7 7 8 8 6 5 6

GEFSSE_con_probscp_222.txt.gz
Probability
13 13 14 12 7 2 2 3 4 4 4 3 3 3 3 4 4 4 4 3 3 2 2 3 4 4 3 4 5 5 5 4 5 6 8 8 7 9 9 8 6 7 9
14 14 16 14 9 5 3 4 4 4 3 3 3 3 4 5 5 4 4 4 4 2 2 4 5 4 4 5 5 5 4 4 4 5 5 5 5 8 10 10 10 11 12
15 16 17 17 12 7 5 5 4 4 3 3 4 3 4 6 7 5 5 6 5 4 3 4 4 3 3 5 5 5 5 4 4 4 3 2 2 7 13 15 14 14 14
18 20 22 21 16 10 8 8 7 6 6 5 5 4 5 7 8 7 6 6 6 5 4 3 3 2 3 4 5 5 4 5 5 4 2 1 3 9 17 19 16 14 13
23 27 29 26 19 13 11 11 9 9 9 9 8 7 7 7 9 9 7 6 5 4 4 3 3 3 3 4 5 5 3 3 3 2 1 2 6 14 19 20 18 14 12
24 28 31 27 21 17 16 14 12 10 10 10 10 10 10 9 9 10 9 7 6 5 5 5 6 5 5 4 4 4 2 1 1 1 1 3 9 17 21 20 20 17 15
21 25 27 25 21 20 21 18 14 11 9 8 9 10 11 11 11 10 10 8 8 7 8 9 10 9 7 4 4 3 2 2 1 1 1 4 11 19 22 22 22 20 19
17 22 24 21 19 20 20 19 16 13 10 8 8 9 10 10 10 10 9 10 10 10 11 11 12 10 9 7 5 4 3 3 2 1 1 5 13 21 24 24 24 24 23
19 21 19 14 14 16 18 18 18 17 16 14 11 9 9 9 9 8 9 11 12 13 13 12 11 9 9 10 8 5 3 2 2 2 2 6 17 25 27 26 25 24 25
20 20 16 11 11 14 16 17 19 21 21 19 15 11 10 10 9 8 9 10 12 14 15 15 14 11 10 11 10 5 2 1 1 1 2 8 20 29 29 27 25 24 24
20 17 15 13 14 14 14 16 19 21 22 20 16 13 12 12 12 11 11 10 11 13 16 17 16 14 13 11 9 6 4 2 2 2 3 9 20 28 27 24 22 23 24
19 17 15 16 18 16 14 17 20 20 20 18 15 14 14 15 15 15 16 16 14 13 15 16 16 16 14 11 8 9 8 5 3 2 4 11 20 24 23 21 20 21 21
19 18 18 19 21 21 21 22 22 21 20 17 16 17 18 18 17 18 20 20 17 15 15 16 17 16 14 10 9 10 11 10 7 4 8 15 21 23 21 19 18 17 15
19 20 22 24 26 27 28 26 24 24 23 21 21 22 23 22 19 18 19 20 17 16 16 16 18 18 15 12 10 11 13 13 11 9 12 19 23 22 19 16 14 12 11
21 23 25 28 30 31 30 27 24 23 23 24 28 28 27 25 21 18 18 18 16 14 14 15 15 16 16 14 12 11 12 13 12 11 13 18 21 20 16 13 10 9 9
24 25 25 27 29 31 30 27 24 22 23 26 31 32 29 26 23 20 20 19 16 13 13 12 12 13 16 15 14 12 12 11 10 10 10 13 16 15 12 10 9 9 8
27 26 25 24 25 28 28 26 24 22 24 28 32 32 30 27 24 22 21 20 16 14 13 12 11 12 14 15 14 13 12 12 11 10 9 11 13 12 9 8 7 10 11
28 28 26 25 25 25 25 25 25 24 27 31 34 33 30 26 24 23 22 20 17 14 13 12 11 12 13 13 13 11 11 13 14 12 10 11 12 12 10 7 6 10 14
28 28 27 28 28 25 24 26 27 28 30 34 35 33 29 24 23 24 22 19 17 13 11 11 12 12 13 12 10 9 11 14 15 13 10 11 13 13 11 9 8 10 12
26 26 27 31 33 30 28 28 28 29 29 31 32 30 26 23 22 21 20 17 14 11 9 8 10 13 13 12 10 9 11 14 14 13 11 11 12 12 12 12 11 10 10
24 25 28 32 36 34 32 30 28 26 23 23 26 27 25 22 20 18 17 15 13 11 9 7 9 11 12 12 12 11 11 12 11 11 12 12 11 11 12 13 12 11 10
23 25 28 31 32 32 30 28 26 22 19 18 20 22 22 21 20 19 17 16 14 12 10 9 9 10 10 11 12 11 9 9 9 9 11 12 11 11 11 12 12 12 12
23 22 24 28 28 28 25 22 19 17 15 15 15 14 15 18 19 19 18 16 14 12 11 10 10 9 8 9 10 10 8 7 8 8 9 10 10 10 9 9 11 13 13
20 20 21 25 27 26 23 16 13 11 11 11 11 9 9 12 15 16 15 14 13 12 11 10 9 8 8 7 8 8 7 6 6 6 7 8 9 8 8 9 11 13 13
16 16 19 22 25 24 20 15 11 10 9 8 7 6 5 7 9 9 11 12 13 12 11 10 9 8 8 7 7 7 7 6 5 5 5 7 8 8 9 10 11 11 11
13 14 16 20 22 20 17 13 11 10 9 6 4 4 4 5 6 6 8 12 13 12 10 9 9 8 8 9 8 7 7 7 6 5 5 5 7 8 11 12 12 10 9